Погода в Бамбари

Центральноафриканская республика     5°45′52″N   20°40′47″E
темп.,
°C
ветер,
м/с
пор.,
м/с
влажн.,
%
обл.,
%
осадки,
мм/ч
давл.,
гПа
погр.,
м
28 сентября, вт
вт2801:00+21ссз0097100 2.4 101011
04:00+20юв119799 0.6 101112
07:00+22в019597 1.7 1013126
10:00+27всв1181100 2.6 1012291
13:00+29юв116599 3.4 10091307
16:00+28св117797 0.8 1007578
19:00+23ююз1191100 1.0 101011
22:00+22св0096100 3.3 101211
29 сентября, ср
ср2901:00+21юв1197100 3.6 101011
04:00+21всв0097100 0.1 101011
07:00+23вюв119274 0.5 1012134
10:00+29ююв12676 0.0 1012844
13:00+31ю125677 0.0 10081558
16:00+28ююз118196 1.3 100731
19:00+23з1190100 4.3 100911
22:00+22ссз1195100 1.4 101111
30 сентября, чт
чт3001:00+22ссв1196100 1.4 100911
04:00+21всв1196100 0.0 101011
07:00+23св129180 0.0 1012163
10:00+30ююз016718 0.0 1011787
13:00+32всв025673 0.0 10081607
16:00+28в1175100 0.1 100614
19:00+22св2896100 3.4 1009187
22:00+22ссз1194100 0.5 101011
1 октября, пт
пт101:00+22с1194100 0.5 100911
04:00+21св009569 0.0 101011
07:00+23юв1291100 0.0 1011161
10:00+29вюв126988 0.0 1011668
13:00+32в125745 0.0 10071473
16:00+30юв127348 0.2 1006222
19:00+24юв1190100 0.8 100811
22:00+23ююз1193100 0.3 100911
2 октября, сб
сб201:00+22зюз1197100 1.2 100924
04:00+21зюз1198100 0.3 100918
07:00+23юз1295100 0.9 1010166
10:00+27ююз227996 1.7 1010429
13:00+28юз2170100 1.7 1008903
16:00+26ююв128791 1.0 1007104
19:00+23ю2394100 1.6 100857
22:00+21ю1397100 1.9 101164